| time (UTC) | temp F | wind direction | speed knots | gust knots | rain 1hr in | rain 24hr in | rain mn in | humidity % | barometer mb |
| 20260505030036 | 64 | 270 | 5.2 | 13.9 | 0.00 | 0.00 | 0.00 | 32 | 1000.0 |
| 20260505024602 | 65 | 320 | 4.3 | 15.6 | 0.00 | 0.00 | 0.00 | 33 | 999.7 |
| 20260505023042 | 66 | 283 | 6.1 | 12.2 | 0.00 | 0.00 | 0.00 | 33 | 999.6 |
| 20260505021549 | 67 | 328 | 7.0 | 17.4 | 0.00 | 0.00 | 0.00 | 34 | 999.4 |
| 20260505020044 | 68 | 319 | 4.3 | 12.2 | 0.00 | 0.00 | 0.00 | 36 | 999.0 |
| 20260505014538 | 68 | 335 | 3.5 | 9.6 | 0.00 | 0.00 | 0.00 | 36 | 998.6 |
| 20260505013036 | 70 | 309 | 4.3 | 9.6 | 0.00 | 0.00 | 0.00 | 37 | 997.9 |
| 20260505011547 | 71 | 300 | 1.7 | 7.8 | 0.00 | 0.00 | 0.00 | 38 | 997.0 |
| 20260505010037 | 72 | 280 | 4.3 | 11.3 | 0.00 | 0.00 | 0.00 | 38 | 996.8 |
| 20260505004544 | 73 | 337 | 5.2 | 9.6 | 0.00 | 0.00 | 0.00 | 36 | 996.4 |
| 20260505003037 | 74 | 243 | 3.5 | 7.0 | 0.00 | 0.00 | 0.00 | 35 | 995.3 |
| 20260505001537 | 75 | 236 | 3.5 | 11.3 | 0.00 | 0.00 | 0.00 | 33 | 995.2 |
| 20260505000035 | 75 | 274 | 6.1 | 10.4 | 0.00 | 0.00 | 0.00 | 33 | 995.3 |
| 20260504234535 | 75 | 255 | 7.0 | 13.0 | 0.00 | 0.00 | 0.00 | 33 | 995.5 |
| 20260504233043 | 76 | 251 | 9.6 | 18.2 | 0.00 | 0.00 | 0.00 | 33 | 995.9 |
| 20260504231539 | 77 | 216 | 12.2 | 23.5 | 0.00 | 0.00 | 0.00 | 34 | 996.1 |
| 20260504230037 | 78 | 261 | 7.8 | 16.5 | 0.00 | 0.00 | 0.00 | 30 | 995.7 |
| 20260504224535 | 78 | 262 | 7.8 | 17.4 | 0.00 | 0.00 | 0.00 | 30 | 995.9 |
| 20260504223036 | 79 | 252 | 9.6 | 22.6 | 0.00 | 0.00 | 0.00 | 29 | 996.0 |
| 20260504221546 | 79 | 239 | 10.4 | 23.5 | 0.00 | 0.00 | 0.00 | 29 | 996.1 |
| 20260504220058 | 79 | 248 | 11.3 | 21.7 | 0.00 | 0.00 | 0.00 | 27 | 996.3 |
| 20260504214539 | 79 | 267 | 8.7 | 20.0 | 0.00 | 0.00 | 0.00 | 28 | 996.6 |
| 20260504213036 | 79 | 257 | 10.4 | 19.1 | 0.00 | 0.00 | 0.00 | 27 | 996.6 |
| 20260504211535 | 78 | 243 | 8.7 | 18.2 | 0.00 | 0.00 | 0.00 | 29 | 996.7 |
| 20260504210032 | 78 | 262 | 12.2 | 19.1 | 0.00 | 0.00 | 0.00 | 28 | 996.9 |
| 20260504204556 | 78 | 266 | 8.7 | 18.2 | 0.00 | 0.00 | 0.00 | 28 | 997.1 |
| 20260504203038 | 78 | 293 | 9.6 | 19.1 | 0.00 | 0.00 | 0.00 | 28 | 997.3 |
| 20260504201537 | 78 | 266 | 7.0 | 19.1 | 0.00 | 0.00 | 0.00 | 28 | 997.4 |
| 20260504200042 | 78 | 251 | 8.7 | 18.2 | 0.00 | 0.00 | 0.00 | 28 | 997.4 |
| 20260504194540 | 77 | 262 | 7.0 | 16.5 | 0.00 | 0.00 | 0.00 | 29 | 997.5 |
| 20260504193041 | 77 | 233 | 7.0 | 20.0 | 0.00 | 0.00 | 0.00 | 27 | 997.6 |
| 20260504191541 | 77 | 233 | 7.0 | 17.4 | 0.00 | 0.00 | 0.00 | 28 | 997.9 |
| 20260504190039 | 77 | 232 | 7.8 | 20.9 | 0.00 | 0.00 | 0.00 | 29 | 997.7 |
| 20260504184537 | 76 | 278 | 6.1 | 19.1 | 0.00 | 0.00 | 0.00 | 29 | 998.0 |
| 20260504183041 | 76 | 216 | 8.7 | 20.0 | 0.00 | 0.00 | 0.00 | 29 | 998.4 |
| 20260504181543 | 75 | 264 | 11.3 | 20.0 | 0.00 | 0.00 | 0.00 | 29 | 998.3 |
| 20260504180039 | 75 | 222 | 7.0 | 21.7 | 0.00 | 0.00 | 0.00 | 29 | 998.4 |
| 20260504174538 | 75 | 257 | 7.8 | 17.4 | 0.00 | 0.00 | 0.00 | 29 | 998.5 |
| 20260504173035 | 74 | 250 | 12.2 | 20.9 | 0.00 | 0.00 | 0.00 | 27 | 998.7 |
| 20260504171535 | 74 | 226 | 7.8 | 18.2 | 0.00 | 0.00 | 0.00 | 28 | 999.0 |
| 20260504081548 | 49 | 218 | 0.9 | 2.6 | 0.00 | 0.00 | 0.00 | 79 | 1003.1 |
| 20260504044535 | 54 | 247 | 1.7 | 1.7 | 0.00 | 0.00 | 0.00 | 66 | 1004.4 |
| 20260504043040 | 54 | 221 | 1.7 | 2.6 | 0.00 | 0.00 | 0.00 | 66 | 1004.3 |
| 20260504041540 | 55 | 221 | 0.9 | 2.6 | 0.00 | 0.00 | 0.00 | 64 | 1004.4 |
| 20260504040041 | 55 | 226 | 1.7 | 2.6 | 0.00 | 0.00 | 0.00 | 63 | 1004.5 |
| 20260504034538 | 55 | 225 | 0.9 | 1.7 | 0.00 | 0.00 | 0.00 | 64 | 1004.6 |
| 20260504033036 | 55 | 219 | 0.9 | 1.7 | 0.00 | 0.00 | 0.00 | 64 | 1004.8 |
| 20260504031535 | 55 | 0 | 0.0 | 0.9 | 0.00 | 0.00 | 0.00 | 65 | 1004.8 |